{"data":{"norad_id":63003,"epoch":"2026-05-25T03:02:02.784768Z","epoch_age_seconds":60531,"freshness":"FRESH","line1":"1 63003U 25009DN  26145.12642112  .00012929  00000+0  46065-3 0  9991","line2":"2 63003  97.3173 221.3662 0004182  72.9671 287.2027 15.29046882132989","mean_motion":15.29046882,"eccentricity":0.0004182,"inclination_deg":97.3173,"raan_deg":221.3662,"arg_perigee_deg":72.9671,"mean_anomaly_deg":287.2027,"bstar":0.00046065,"rev_number":13298,"period_min":94.176314470912,"perigee_km":475.79272289104,"apogee_km":481.52774809881,"semimajor_km":6856.7972354949,"source":"CELESTRAK","updated_at":"2026-05-25T13:38:03.404488Z"}}